This is the latest recevied weather packets stored in our database for station/object WA4TPR. If no packets are shown the sender has not sent any weather packets the latest 10 day(s).
| Time | Temp. | Humidity | Pressure | Rain* | Wind** | Luminosity | Snow |
|---|---|---|---|---|---|---|---|
| 1777656088 | 30.56° C | 52% | 1016.1 hPa | 0 mm | - | 907 W/m² | - |
| 1777655785 | 30.56° C | 55% | 1016.2 hPa | 0 mm | - | 242 W/m² | - |
| 1777655482 | 30.56° C | 56% | 1016.1 hPa | 0 mm | - | 894 W/m² | - |
| 1777655179 | 30.56° C | 55% | 1016.2 hPa | 0 mm | - | 901 W/m² | - |
| 1777654876 | 30° C | 57% | 1016.2 hPa | 0 mm | - | 882 W/m² | - |
| 1777654573 | 30° C | 58% | 1016.3 hPa | 0 mm | - | 157 W/m² | - |
| 1777654270 | 31.11° C | 57% | 1016.3 hPa | 0 mm | - | 161 W/m² | - |
| 1777653968 | 30° C | 53% | 1016.2 hPa | 0 mm | - | 852 W/m² | - |
| 1777653665 | 30° C | 58% | 1016.5 hPa | 0 mm | - | 151 W/m² | - |
| 1777653361 | 29.44° C | 62% | 1016.7 hPa | 0 mm | - | 875 W/m² | - |
| 1777653058 | 30.56° C | 61% | 1016.7 hPa | 0 mm | - | 240 W/m² | - |
| 1777652754 | 30.56° C | 59% | 1016.5 hPa | 0 mm | - | 861 W/m² | - |
| 1777652452 | 29.44° C | 60% | 1016.6 hPa | 0 mm | - | 844 W/m² | - |
| 1777652149 | 29.44° C | 61% | 1016.8 hPa | 0 mm | - | 853 W/m² | - |
| 1777651845 | 28.89° C | 62% | 1016.7 hPa | 0 mm | - | 828 W/m² | - |
| 1777651542 | 30° C | 62% | 1016.9 hPa | 0 mm | - | 212 W/m² | - |
| 1777651239 | 30° C | 62% | 1016.8 hPa | 0 mm | - | 782 W/m² | - |
| 1777650936 | 30° C | 64% | 1016.6 hPa | 0 mm | - | 752 W/m² | - |
| 1777650633 | 28.89° C | 66% | 1016.5 hPa | 0 mm | - | 740 W/m² | - |
| 1777650330 | 28.33° C | 66% | 1016.7 hPa | 0 mm | - | 725 W/m² | - |
| 1777650027 | 28.89° C | 69% | 1016.7 hPa | 0 mm | - | 714 W/m² | - |
| 1777649725 | 28.33° C | 71% | 1016.9 hPa | 0 mm | - | 713 W/m² | - |
| 1777649421 | 27.78° C | 71% | 1016.9 hPa | 0 mm | - | 691 W/m² | - |
| 1777649118 | 28.33° C | 72% | 1016.7 hPa | 0 mm | - | 683 W/m² | - |
| 1777648816 | 28.33° C | 72% | 1017.1 hPa | 0 mm | - | 671 W/m² | - |
* Rain latest hour (hover to see other rain measurements)
** Current wind speed in m/s (hover to see current wind gust speed)